Location: ???? ????
(31.2831°N, 45.5190°E)
Time: 07:27:14
(UTC+00:00)

Meteor 1-20 Rocket - Pass Details

Date: 24 February 2021
Orbit: 820 x 891 km, 81.2° (Epoch: 15 April)

Event Time Altitude Azimuth Distance (km) Brightness Sun altitude
Rises 15:52:04 0° 177° (S) 3,356 7.3 -13.5°
Reaches altitude 10° 15:54:29 10° 174° (S) 2,419 6.6 -14.0°
Maximum altitude 15:59:52 62° 95° (E) 920 4.1 -15.2°
Drops below altitude 10° 16:05:14 10° 15° (NNE) 2,419 6.4 -16.3°
Sets 16:07:39 0° 13° (NNE) 3,356 7.2 -16.8°
